When you browse on this site, cookies collect data to enhance your experience and personalize the content and advertising you see.
Visit our Privacy Policy to learn more. By continuing to use the site, you agree to this use of cookies and data.
  • In Romania
  • List of Countries
  • For 7 days
  • Water Temperature
  • Satellite Maps
  • Weather Map
  • Weather Widgets
  • user-avatar
    Login

    Hourly Weather Larne

    Today, 22 January, Tuesday

    Time Temperature Precipitation Wind Pressure Humidity
    00:00 -1°C° 0 mm 7 mps 748 mmHg 84%
    01:00 -1°C° 0 mm 7 mps 748 mmHg 84%
    02:00 -1°C° 0 mm 7 mps 747 mmHg 83%
    03:00 -1°C° 0 mm 7 mps 747 mmHg 83%
    04:00 -1°C° 0 mm 7 mps 747 mmHg 83%
    05:00 -1°C° 0 mm 7 mps 746 mmHg 84%
    06:00 -2°C° 0 mm 6 mps 746 mmHg 88%
    07:00 -2°C° 0 mm 6 mps 746 mmHg 88%
    08:00 -1°C° 0 mm 6 mps 746 mmHg 88%
    09:00 -1°C° 0 mm 7 mps 745 mmHg 88%
    10:00 -1°C° 0 mm 7 mps 745 mmHg 83%
    11:00 0°C° 0 mm 8 mps 745 mmHg 77%
    12:00 0°C° 0 mm 8 mps 745 mmHg 72%
    13:00 0°C° 0.1 mm 8 mps 745 mmHg 71%
    14:00 0°C° 0.1 mm 7 mps 745 mmHg 70%
    15:00 0°C° 0.1 mm 7 mps 744 mmHg 69%
    16:00 0°C° 0 mm 7 mps 744 mmHg 71%
    17:00 -1°C° 0 mm 7 mps 744 mmHg 72%
    18:00 -1°C° 0 mm 7 mps 744 mmHg 74%
    19:00 -1°C° 0.1 mm 6 mps 745 mmHg 75%
    20:00 -2°C° 0.1 mm 6 mps 745 mmHg 76%
    21:00 -2°C° 0.1 mm 6 mps 745 mmHg 77%
    22:00 -2°C° 0.1 mm 6 mps 746 mmHg 77%
    23:00 -2°C° 0.1 mm 6 mps 746 mmHg 77%

    Tomorrow, 23 January, Wednesday

    Time Temperature Precipitation Wind Pressure Humidity
    00:00 -2°C° 0.1 mm 6 mps 746 mmHg 77%
    01:00 -1°C° 0 mm 6 mps 747 mmHg 76%
    02:00 -1°C° 0 mm 6 mps 747 mmHg 76%
    03:00 -1°C° 0 mm 6 mps 747 mmHg 76%
    04:00 -1°C° 0 mm 6 mps 748 mmHg 76%
    05:00 -1°C° 0 mm 5 mps 748 mmHg 77%
    06:00 -1°C° 0 mm 5 mps 749 mmHg 77%
    07:00 -1°C° 0 mm 5 mps 749 mmHg 79%
    08:00 -1°C° 0 mm 4 mps 750 mmHg 80%
    09:00 -1°C° 0 mm 4 mps 750 mmHg 81%
    10:00 0°C° 0 mm 4 mps 751 mmHg 79%
    11:00 +1°C° 0 mm 4 mps 751 mmHg 76%
    12:00 +4°C° 0 mm 4 mps 751 mmHg 74%
    13:00 +4°C° 0 mm 4 mps 751 mmHg 75%
    14:00 +4°C° 0 mm 4 mps 751 mmHg 77%
    15:00 +4°C° 0 mm 4 mps 751 mmHg 78%
    16:00 +3°C° 0 mm 4 mps 751 mmHg 83%
    17:00 +3°C° 0 mm 4 mps 751 mmHg 87%
    18:00 +1°C° 0 mm 4 mps 751 mmHg 92%
    19:00 +1°C° 0 mm 4 mps 751 mmHg 93%
    20:00 +2°C° 0 mm 3 mps 752 mmHg 94%
    21:00 +2°C° 0 mm 3 mps 752 mmHg 95%
    22:00 +2°C° 0 mm 3 mps 752 mmHg 95%
    23:00 +2°C° 0 mm 3 mps 752 mmHg 95%

    Day after tomorrow, 24 January, Thursday

    Time Temperature Precipitation Wind Pressure Humidity
    00:00 +3°C° 0 mm 2 mps 752 mmHg 95%
    01:00 +3°C° 0 mm 2 mps 752 mmHg 95%
    02:00 +3°C° 0 mm 2 mps 753 mmHg 95%
    03:00 +2°C° 0 mm 2 mps 753 mmHg 96%
    04:00 +3°C° 0 mm 2 mps 753 mmHg 96%
    05:00 +3°C° 0 mm 2 mps 753 mmHg 95%
    06:00 +3°C° 0 mm 2 mps 753 mmHg 95%
    07:00 +3°C° 0 mm 3 mps 753 mmHg 96%
    08:00 +4°C° 0 mm 3 mps 754 mmHg 96%
    09:00 +4°C° 0 mm 4 mps 754 mmHg 96%
    10:00 +5°C° 0.2 mm 4 mps 754 mmHg 96%
    11:00 +5°C° 0.2 mm 4 mps 755 mmHg 96%
    12:00 +6°C° 0.2 mm 4 mps 755 mmHg 95%
    13:00 +5°C° 0.5 mm 3 mps 755 mmHg 96%
    14:00 +6°C° 0.5 mm 2 mps 755 mmHg 96%
    15:00 +7°C° 0.5 mm 1 mps 755 mmHg 97%
    16:00 +7°C° 0.4 mm 1 mps 755 mmHg 97%
    17:00 +8°C° 0.4 mm 1 mps 755 mmHg 97%
    18:00 +8°C° 0.4 mm 1 mps 756 mmHg 97%
    19:00 +8°C° 0.2 mm 1 mps 756 mmHg 97%
    20:00 +9°C° 0.2 mm 1 mps 756 mmHg 97%
    21:00 +9°C° 0.2 mm 1 mps 757 mmHg 97%
    22:00 +8°C° 0.2 mm 2 mps 757 mmHg 97%
    23:00 +8°C° 0.2 mm 2 mps 757 mmHg 97%

    25 January, Friday

    Time Temperature Precipitation Wind Pressure Humidity
    00:00 +8°C° 0.2 mm 2 mps 757 mmHg 97%
    01:00 +8°C° 0.2 mm 2 mps 757 mmHg 97%
    02:00 +8°C° 0.2 mm 2 mps 757 mmHg 97%
    03:00 +8°C° 0.2 mm 3 mps 757 mmHg 97%
    04:00 +8°C° 0.1 mm 3 mps 757 mmHg 97%
    05:00 +8°C° 0.1 mm 3 mps 757 mmHg 96%
    06:00 +7°C° 0.1 mm 4 mps 757 mmHg 95%
    07:00 +7°C° 0 mm 4 mps 757 mmHg 94%
    08:00 +6°C° 0 mm 4 mps 757 mmHg 94%
    09:00 +6°C° 0 mm 4 mps 757 mmHg 93%
    10:00 +6°C° 0 mm 4 mps 757 mmHg 92%
    11:00 +7°C° 0 mm 5 mps 757 mmHg 91%
    12:00 +7°C° 0 mm 5 mps 756 mmHg 90%
    13:00 +7°C° 0.1 mm 5 mps 756 mmHg 91%
    14:00 +8°C° 0.1 mm 6 mps 755 mmHg 91%
    15:00 +8°C° 0.1 mm 7 mps 754 mmHg 91%
    16:00 +8°C° 0.7 mm 7 mps 754 mmHg 92%
    17:00 +7°C° 0.7 mm 8 mps 753 mmHg 93%
    18:00 +7°C° 0.7 mm 8 mps 752 mmHg 94%
    19:00 +6°C° 2 mm 9 mps 752 mmHg 93%
    20:00 +5°C° 2 mm 9 mps 752 mmHg 92%
    21:00 +2°C° 2 mm 10 mps 752 mmHg 91%
    22:00 +2°C° 0.3 mm 9 mps 752 mmHg 89%
    23:00 +2°C° 0.3 mm 9 mps 752 mmHg 87%

    26 January, Saturday

    Time Temperature Precipitation Wind Pressure Humidity
    00:00 +2°C° 0.3 mm 8 mps 753 mmHg 85%
    01:00 +2°C° 0 mm 8 mps 753 mmHg 84%
    02:00 +1°C° 0 mm 8 mps 754 mmHg 82%
    03:00 +2°C° 0 mm 7 mps 754 mmHg 80%
    04:00 +2°C° 0.1 mm 7 mps 755 mmHg 80%
    05:00 +2°C° 0.1 mm 7 mps 755 mmHg 81%
    06:00 +2°C° 0.1 mm 7 mps 755 mmHg 81%
    07:00 +2°C° 0 mm 7 mps 755 mmHg 81%
    08:00 +2°C° 0 mm 6 mps 755 mmHg 82%
    09:00 +2°C° 0 mm 6 mps 756 mmHg 83%
    10:00 +2°C° 0.1 mm 6 mps 756 mmHg 81%
    11:00 +3°C° 0.1 mm 7 mps 755 mmHg 78%
    12:00 +4°C° 0.1 mm 7 mps 755 mmHg 76%
    13:00 +4°C° 0.1 mm 7 mps 755 mmHg 77%
    14:00 +4°C° 0.1 mm 7 mps 755 mmHg 78%
    15:00 +4°C° 0.1 mm 7 mps 754 mmHg 78%
    16:00 +3°C° 0 mm 7 mps 753 mmHg 81%
    17:00 +3°C° 0 mm 7 mps 753 mmHg 84%
    18:00 +2°C° 0 mm 7 mps 752 mmHg 86%
    19:00 +2°C° 0.2 mm 8 mps 752 mmHg 88%
    20:00 +2°C° 0.2 mm 9 mps 751 mmHg 89%
    21:00 +3°C° 0.2 mm 9 mps 750 mmHg 91%
    22:00 +4°C° 0.4 mm 8 mps 750 mmHg 90%
    23:00 +4°C° 0.4 mm 7 mps 750 mmHg 89%

    27 January, Sunday

    Time Temperature Precipitation Wind Pressure Humidity
    00:00 +4°C° 0.4 mm 6 mps 750 mmHg 87%
    01:00 +3°C° 0 mm 7 mps 750 mmHg 86%
    02:00 +2°C° 0 mm 7 mps 750 mmHg 84%
    03:00 +1°C° 0 mm 8 mps 750 mmHg 82%
    04:00 +1°C° 0 mm 8 mps 750 mmHg 82%
    05:00 +1°C° 0 mm 8 mps 751 mmHg 82%
    06:00 +1°C° 0 mm 8 mps 751 mmHg 81%
    07:00 +1°C° 0.1 mm 8 mps 751 mmHg 81%
    08:00 +1°C° 0.1 mm 8 mps 752 mmHg 80%
    09:00 +1°C° 0.1 mm 8 mps 752 mmHg 80%
    10:00 +1°C° 0.1 mm 8 mps 753 mmHg 78%
    11:00 +2°C° 0.1 mm 8 mps 753 mmHg 75%
    12:00 +2°C° 0.1 mm 8 mps 754 mmHg 73%
    13:00 +2°C° 0.1 mm 8 mps 754 mmHg 73%
    14:00 +2°C° 0.1 mm 8 mps 754 mmHg 72%
    15:00 +2°C° 0.1 mm 8 mps 754 mmHg 72%
    16:00 +1°C° 0 mm 8 mps 755 mmHg 74%
    17:00 +2°C° 0 mm 7 mps 755 mmHg 75%
    18:00 0°C° 0 mm 7 mps 756 mmHg 77%
    19:00 +1°C° 0.1 mm 6 mps 756 mmHg 78%
    20:00 +1°C° 0.1 mm 6 mps 757 mmHg 80%
    21:00 +2°C° 0.1 mm 5 mps 757 mmHg 81%
    22:00 +1°C° 0.1 mm 6 mps 758 mmHg 80%
    23:00 +1°C° 0.1 mm 6 mps 758 mmHg 79%
    Show more